SCP
2 2 3 4 4 4 3 2 2 2 1 2 1 1 1 1 1 1 1 2 2 2 2 1 1 1 1 1 2 2 2 1 1 1 1 2 1 1 1 1 1 1 1
2 2 3 4 4 4 3 2 2 2 2 2 2 1 1 1 1 1 1 2 2 2 1 1 1 1 1 1 2 2 2 1 1 1 1 1 1 1 1 1 1 1 1
3 3 3 4 4 3 2 2 2 2 2 2 2 2 1 2 2 2 2 2 2 1 1 1 1 1 1 1 2 2 2 1 1 1 1 1 1 1 1 1 1 1 1
3 3 4 5 4 3 2 2 2 2 2 2 2 2 2 2 2 2 2 2 1 1 1 1 1 1 1 1 2 2 2 1 1 1 1 1 1 1 1 1 1 1 1
3 3 4 5 5 4 2 2 2 1 1 1 1 1 2 2 2 2 1 1 1 1 1 1 1 1 1 2 2 2 2 1 1 1 0 1 1 1 1 1 1 1 1
3 3 5 6 5 4 2 2 1 1 1 1 1 1 1 1 1 1 1 1 1 1 1 1 1 1 1 2 2 2 1 1 1 0 0 1 1 1 1 1 1 1 1
4 4 5 6 5 3 2 2 2 1 1 1 1 1 1 1 1 1 1 1 1 1 1 1 1 1 1 2 2 1 1 1 0 0 0 0 0 0 1 1 1 1 1
4 5 5 5 4 3 2 2 2 1 1 1 1 1 1 1 1 1 1 1 1 1 1 1 1 1 1 1 1 1 1 1 0 0 0 0 0 0 0 1 1 1 1
4 4 4 4 3 2 2 2 1 1 1 1 1 1 1 1 1 1 1 1 1 1 1 1 1 1 1 1 1 1 1 1 0 0 0 0 0 0 0 0 1 1 1
4 4 3 3 3 2 1 1 1 2 2 1 1 1 1 1 1 1 1 1 1 1 1 1 1 1 1 1 1 1 1 1 0 0 0 0 0 0 0 1 1 1 1
3 3 3 3 2 2 1 2 2 2 2 1 1 1 1 1 1 1 1 1 1 1 1 1 1 1 1 1 1 1 1 0 0 0 0 1 1 1 1 1 1 1 1
2 2 2 2 2 2 2 2 2 2 2 2 1 1 1 1 1 1 1 1 1 1 1 1 1 1 1 1 0 0 1 1 1 0 0 1 1 2 1 1 1 1 1
3 2 2 2 2 2 2 3 3 3 3 2 2 1 1 1 1 1 1 1 1 1 1 1 1 1 1 1 0 0 0 1 1 1 1 1 2 3 2 2 1 1 1
3 2 2 2 2 2 2 3 4 4 3 3 2 2 2 1 1 1 1 1 1 1 1 1 1 1 1 1 0 0 0 1 1 1 1 1 2 4 4 3 2 1 1
3 3 2 2 2 2 2 3 3 3 3 3 2 2 2 1 1 1 1 1 1 2 2 1 1 1 1 1 1 1 1 1 1 1 1 1 2 4 5 4 3 2 1
4 3 3 2 2 2 2 2 2 2 2 2 2 2 2 1 1 1 2 2 2 2 2 2 1 1 1 1 1 1 1 1 1 1 1 1 2 3 4 4 4 3 2
5 5 4 3 3 3 2 2 2 2 2 2 2 2 2 2 2 2 2 2 2 2 2 2 1 1 1 1 1 1 1 1 1 1 1 1 2 2 3 3 3 3 2
7 7 5 4 4 4 3 3 3 3 3 2 2 2 3 3 3 2 2 2 2 1 2 2 2 1 1 1 1 1 1 1 1 1 1 1 1 2 2 2 2 2 2
8 7 6 5 5 5 5 4 3 3 3 3 3 3 3 3 3 3 2 2 2 2 2 2 2 2 1 1 1 1 1 1 1 1 1 1 1 1 2 2 2 2 1
8 8 6 6 6 6 6 5 4 3 3 3 3 3 3 2 2 2 2 2 2 2 2 2 2 2 1 1 1 0 0 1 1 1 1 0 0 1 1 2 2 2 1
9 8 7 7 7 6 6 6 5 4 3 2 2 2 2 1 1 2 2 2 2 2 3 3 2 2 1 1 0 0 0 0 1 1 0 0 0 1 1 1 1 1 1
9 9 8 8 8 7 6 6 5 3 2 2 2 1 1 1 1 1 1 2 2 2 2 2 2 2 2 1 0 0 0 0 0 1 0 0 0 1 1 1 1 1 1
8 9 9 9 9 8 7 5 4 3 2 1 1 1 1 1 1 1 1 1 1 2 2 2 2 2 2 1 0 0 0 0 0 1 1 0 0 1 1 1 1 1 1
6 7 8 8 9 8 7 6 4 3 2 1 1 1 1 1 1 1 1 1 1 1 1 1 2 2 2 1 1 0 0 0 0 1 1 1 0 0 1 1 1 1 1
5 5 6 7 7 7 7 6 4 3 2 1 1 0 1 1 1 1 1 1 1 1 1 1 1 1 1 1 1 0 0 0 0 1 1 1 0 0 0 1 1 1 1
5 6 6 6 6 6 6 5 4 3 2 1 1 0 1 1 1 1 1 1 1 1 1 1 1 1 1 1 1 0 0 0 0 1 1 1 0 0 0 0 1 1 1
Wind_Speed
6 7 13 14 13 13 12 12 12 12 12 12 12 12 12 11 11 10 10 9 8 9 9 9 9 10 10 11 12 13 12 12 12 11 11 12 12 12 11 12 12 9 13
11 10 14 14 14 13 12 12 12 11 11 11 12 12 11 11 11 10 9 9 9 9 9 9 9 9 10 11 11 12 12 12 12 12 12 11 11 12 11 12 11 8 12
13 10 12 14 13 13 12 12 11 11 11 11 11 11 11 11 10 10 10 9 9 9 9 8 8 8 9 10 10 11 11 11 12 12 11 6 7 11 11 11 12 12 12
13 9 11 15 14 13 13 12 11 11 11 11 11 11 11 10 10 10 9 9 9 8 8 8 7 7 8 9 9 10 10 11 11 11 5 4 5 11 11 11 11 12 12
10 9 11 15 14 13 13 12 11 11 11 11 11 10 10 10 9 9 9 8 8 7 7 7 7 7 7 8 8 8 10 10 10 8 5 4 4 10 11 10 11 11 11
10 8 11 15 14 13 12 12 11 11 11 10 11 10 9 9 9 8 8 8 7 6 6 6 6 6 6 7 8 8 8 9 7 5 5 4 4 9 11 10 11 11 11
9 7 10 14 13 12 12 12 11 11 10 9 9 9 9 8 8 7 7 7 6 6 6 6 6 5 5 6 7 7 8 8 5 5 4 4 5 10 11 11 10 11 11
11 8 8 13 13 12 11 11 11 10 10 9 8 8 7 7 7 7 7 7 6 5 5 5 5 5 5 5 5 6 6 7 5 5 4 4 8 10 11 11 10 10 10
10 8 6 7 9 11 11 11 11 10 9 9 8 8 7 7 6 6 7 6 6 5 5 4 4 5 5 5 4 5 6 6 4 3 5 4 8 10 10 10 10 9 10
8 7 6 6 5 5 6 10 11 10 9 9 8 8 7 6 6 6 6 6 6 5 5 4 4 4 4 4 4 5 6 5 3 2 2 4 9 10 10 10 10 10 10
8 6 6 6 5 5 5 8 8 9 9 8 7 8 6 2 2 3 4 6 5 5 4 4 4 3 3 3 4 5 4 2 2 2 2 6 8 9 10 10 10 10 10
9 8 6 6 6 6 5 4 3 4 4 4 3 4 3 2 2 2 4 6 6 5 4 4 3 2 1 2 3 4 2 3 2 2 4 9 9 9 9 9 9 10 10
10 8 7 7 7 6 4 4 3 2 2 3 4 4 3 2 1 1 1 1 2 3 1 1 1 1 1 2 2 2 3 2 2 2 4 9 9 10 10 10 9 9 10
9 8 7 6 6 5 4 4 3 3 3 3 4 4 3 2 2 2 1 1 1 1 1 1 1 1 1 2 2 3 3 3 2 2 4 9 9 10 10 10 10 9 9
8 8 8 7 6 5 4 3 4 3 3 4 3 4 4 3 3 2 1 1 2 2 2 2 1 1 1 1 2 3 3 3 3 3 3 8 8 9 10 10 10 9 9
9 8 7 7 6 5 4 3 3 3 3 3 3 4 5 3 3 3 2 2 2 2 2 2 2 2 1 1 2 2 3 3 3 3 2 4 7 8 9 10 9 9 9
8 7 7 7 6 5 5 4 3 3 3 3 3 4 4 4 4 3 2 2 2 2 2 2 2 2 2 1 1 1 2 3 3 4 3 2 3 6 9 9 9 9 9
8 7 6 6 5 4 4 3 2 3 3 3 3 3 4 4 4 3 2 2 2 2 2 2 1 1 1 1 1 1 1 2 3 3 3 2 2 3 6 8 8 8 9
8 7 6 5 5 4 3 2 2 2 3 3 3 3 4 4 4 3 2 2 2 2 2 2 1 2 2 1 1 1 1 1 2 3 3 3 3 3 3 5 8 8 8
7 7 6 5 4 4 2 2 1 2 2 2 2 3 4 3 3 3 2 2 2 2 2 2 2 1 1 2 1 1 0 1 1 2 3 2 2 3 3 3 3 4 6
7 6 6 6 4 3 3 2 2 2 1 1 2 3 4 3 3 3 2 2 2 2 2 3 2 2 1 2 2 1 2 1 0 1 1 2 2 2 2 3 2 2 2
7 7 6 6 5 4 3 2 2 2 1 1 1 2 3 3 3 3 3 3 3 2 2 2 2 2 1 2 3 2 1 2 2 0 1 2 2 1 2 2 3 3 2
7 7 6 6 5 4 3 2 2 2 2 1 1 1 2 3 3 2 3 3 3 3 3 3 3 3 2 1 2 3 3 2 1 1 0 1 1 2 2 2 3 3 3
6 5 5 5 4 4 4 4 5 3 2 2 1 1 1 2 2 2 3 3 3 2 3 3 3 3 3 2 1 1 2 3 3 0 1 1 1 2 2 2 2 2 3
6 5 4 4 4 3 4 5 5 3 2 1 1 1 1 1 1 2 3 3 3 2 3 3 2 3 3 3 2 1 1 1 2 3 1 1 1 1 1 2 2 2 3
5 5 5 5 4 4 4 4 5 5 4 3 2 2 1 1 1 1 2 2 2 2 3 3 3 3 2 3 2 2 2 2 2 2 2 1 1 1 1 1 2 2 3
Wind_Direction
149 155 138 128 123 120 115 110 107 103 98 94 93 93 94 94 95 94 95 96 102 112 113 113 113 116 118 121 121 119 120 123 125 126 124 126 124 124 126 126 122 118 119
150 150 137 130 126 123 118 114 110 107 103 100 97 96 96 96 95 93 94 95 101 111 113 112 114 117 120 122 123 122 124 126 128 125 122 124 126 122 121 126 121 122 123
141 143 138 133 130 126 122 117 114 111 109 105 102 99 99 99 97 95 94 95 99 106 111 112 113 115 118 119 121 123 126 126 125 122 120 119 123 124 122 124 123 123 123
140 141 138 136 132 129 125 121 118 116 114 112 108 106 104 102 99 97 97 98 100 104 111 113 115 119 119 119 120 125 130 130 125 124 121 118 123 125 124 126 127 126 124
139 141 142 138 135 133 131 129 126 122 120 118 114 112 110 108 104 102 102 101 102 106 111 115 117 118 120 121 121 123 129 132 128 119 122 119 120 127 128 127 129 130 129
140 143 144 141 139 137 136 135 133 130 125 121 117 115 114 113 112 110 111 109 108 109 111 116 118 115 118 121 121 121 126 131 123 124 125 127 129 134 137 135 139 138 134
141 144 145 142 142 141 141 141 140 138 134 129 125 122 118 115 117 120 119 118 117 115 114 117 123 123 126 122 124 122 121 125 122 128 133 137 144 142 144 142 147 147 142
142 143 144 144 144 145 144 144 143 144 143 138 134 132 130 125 124 127 133 134 133 130 123 125 131 128 126 125 131 126 126 128 125 132 141 151 151 149 147 146 148 150 147
138 143 147 151 150 151 152 152 150 150 151 149 145 142 140 139 139 142 148 150 149 145 141 136 137 139 143 138 134 138 138 132 121 133 151 157 159 156 153 151 151 153 149
142 150 154 151 148 152 160 162 161 159 159 156 154 152 150 151 152 154 155 159 159 159 157 155 150 159 158 152 147 147 141 131 122 136 151 162 163 159 156 157 157 155 152
151 161 162 158 159 162 167 169 166 166 168 167 165 165 162 159 168 169 172 173 168 165 166 167 165 164 162 155 150 147 141 131 137 151 165 164 163 161 161 160 160 158 157
162 170 168 163 168 172 174 166 172 174 174 173 176 175 166 164 183 187 188 184 178 171 166 165 154 144 133 110 129 140 133 142 152 164 168 166 165 163 162 160 160 163 164
165 165 168 170 172 174 170 166 175 179 173 174 178 177 168 165 180 196 175 190 178 169 147 143 99 94 119 119 118 133 144 145 161 168 167 167 170 170 166 164 164 167 171
159 165 166 170 168 170 164 173 173 177 181 180 183 178 168 164 168 173 173 176 160 153 149 137 131 135 125 143 148 146 148 151 159 157 169 168 173 174 169 166 168 167 171
158 167 170 167 169 168 165 179 173 182 183 181 176 181 175 169 173 175 172 170 177 165 159 155 156 139 126 138 146 141 146 156 161 162 165 171 173 174 173 171 171 174 179
163 166 165 169 166 159 166 179 179 183 180 170 173 182 177 170 167 172 176 175 181 174 166 167 169 153 139 122 123 139 156 162 168 173 169 176 180 180 180 177 177 179 182
162 158 159 165 158 162 170 176 172 176 168 171 175 174 170 168 162 161 163 176 188 171 159 151 151 135 138 129 137 168 169 171 174 180 175 177 180 184 184 184 185 187 189
150 153 161 158 153 158 159 161 158 162 162 169 168 173 169 167 162 154 162 180 187 166 156 150 143 130 127 134 149 185 183 168 178 181 178 179 180 185 190 191 192 194 196
154 153 152 149 155 156 150 149 145 148 162 167 163 165 163 163 162 159 170 177 174 152 157 163 144 149 144 149 173 175 180 184 192 187 183 183 186 183 186 192 196 202 205
148 148 148 146 146 141 133 115 98 114 148 157 159 162 159 163 167 161 163 169 160 143 141 137 137 146 152 158 150 123 216 216 197 182 186 183 185 184 180 189 196 208 205
142 144 149 147 153 148 148 152 144 150 149 149 158 152 151 157 166 161 163 159 156 157 164 155 145 136 139 124 98 39 357 358 164 186 187 180 177 179 172 181 184 187 205
152 153 154 154 162 168 171 169 160 154 144 141 150 150 154 155 166 166 158 161 160 153 147 155 146 138 158 144 135 118 44 352 341 328 185 179 180 163 175 188 189 189 188
153 161 162 165 168 172 159 135 115 82 71 73 93 129 168 162 165 169 165 161 160 159 167 175 163 157 171 198 161 148 149 193 271 334 305 177 181 182 197 188 187 188 191
159 155 151 157 162 160 147 145 146 145 154 183 162 156 170 158 158 161 160 164 166 167 171 182 174 171 160 175 209 169 161 157 152 171 331 325 226 200 207 206 195 194 190
159 153 147 141 144 147 147 151 147 143 152 141 127 126 141 146 160 162 160 157 163 171 174 169 158 162 161 166 170 156 117 101 125 141 194 280 330 275 217 215 213 206 198
151 148 145 143 139 140 140 148 153 152 145 138 147 158 168 170 174 168 163 161 164 168 175 172 162 158 158 155 151 145 147 148 164 148 166 195 238 285 262 219 209 211 204